sat.trackr.live / text

‹ back to catalog

STARLINK-3125

NORAD 49451 · 2021-104AV

PAYLOAD ACTIVE UNKNOWN

§ Identity

Operator
Country
US
Launch date
2021-11-13
Launch site
AFETR
Launch vehicle
Mass (kg)
RCS (m²)

Purposes: comms

External: N2YO · Heavens-Above · Gunter

§ Orbital elements

Epoch: 2026-09-09T20:41:51.628704Z

Period
93.90 min
Inclination
53.1590°
Eccentricity
0.0001280
Mean motion
15.33547624 rev/d
Perigee alt
464.4 km
Apogee alt
466.1 km
Semi-major
6,843.4 km
B*
-1.1390e-5
RAAN
101.5951°
Arg perigee
67.8534°
Mean anomaly
292.2604°
Rev number
26,672

§ Raw data

STARLINK-31251 49451U 21104AV  26252.86240311 -.00000747  00000+0 -11390-4 0  99902 49451  53.1590 101.5951 0001280  67.8534 292.2604 15.33547624266722

JSON: /api/v1/satellites/49451 · /tle

For live sub-satellite position, see the globe view (requires WebGL).

§ Visibility from observer

Set your observer location to see the next 7 days of passes ≥ 10°. The values pass through the URL so the page stays shareable.

No JS? Fill the form by hand. The geolocation button needs JavaScript.